Location: Unspecified
(0.0000°N, 0.0000°E)
Time: 21:33:40
(UTC+00:00)

Hubble Space Telescope - Pass Details

Date: 27 March 2023
Orbit: 527 x 530 km, 28.5° (Epoch: 30 March)

Event Time Altitude Azimuth Distance (km) Brightness Sun altitude
Rises 18:44:29 0° 262° (W) 2,650 6.3 -9.8°
Reaches altitude 10° 18:47:03 10° 276° (W) 1,760 5.0 -10.4°
Maximum altitude 18:50:22 24° 331° (NNW) 1,122 2.8 -11.2°
Drops below altitude 10° 18:53:40 10° 25° (NNE) 1,757 3.2 -12.1°
Enters shadow 18:55:20 - 36° (NE) 2,316 3.7 -12.5°
